Tracking 25689 objects as of 7-Jul-2022
HD Live streaming from Space Station
objects crossing your sky now

ORBCOMM FM 35

Track ORBCOMM FM 35 now!
10-day predictions
ORBCOMM FM 35 is classified as:


NORAD ID: 25985
Int'l Code: 1999-065F
Perigee: 785.8 km
Apogee: 789.5 km
Inclination: 45.0 °
Period: 100.5 minutes
Semi major axis: 7158 km
RCS: 0.5674 m2 (medium)
Launch date: December 4, 1999
Source: ORBCOMM (ORB)
Launch site: AIR FORCE EASTERN TEST RANGE (AFETR)
aabbcc
Your satellite tracking list
Your tracking list is empty




NASA's NSSDC Master Catalog

Two Line Element Set (TLE):
1 25985U 99065F   22187.56365170  .00000267  00000-0  14686-3 0  9994
2 25985  45.0402 131.1642 0002534  29.9643 330.1349 14.33366599180158
Source of the keplerian elements: AFSPC